ONEWEB-0296 (49085 NORAD) Tracking and Keplerian Element Data

This shows tracking and keplerian element data for the satellite.

Feedback or suggestion? Click here.




ElementValue
Catalog49085
NameONEWEB-0296
Epoch Orbit562
Epoch Day262.16668981
Epoch Year2021
RAAN356.3399
Inclination87.3424
Eccentricity0.0021067
Argument of Perigee194.4763
Mean Anonmoly357.1681
Mean Motion15.23850658
Decay Rate-0.00832187
L11 49085U 21075L 21262.16668981 -.00832187 00000-0 -37153-1 0 9990
L22 49085 87.3424 356.3399 0021067 194.4763 357.1681 15.23850658 5621

Live tracking and technical data element details for ONEWEB-0296 (NORAD 49085). ONEWEB-0296 can be tracked NOW for your location showing map with azimuth and elevation plus other details from your city location.

Track the satellite on the map from your city or location and see movement details for azimuth, elevation, latitude, longitude, range, height, and movement on the map or in text.







IsCatalogInMostPopularTable: catalog: 49085, numindb: 4
Update: records affected: 1



GetName: 49085 ONEWEB-0296

Hit Count: updated at: Fri, 24 Sep 2021 18:57:56 GMT